Viña del mar Airport
SCVM : rendu visible

Aérodrome :











RETROUVEZ-NOUS SUR...

 
LOGIN :

S'inscrire | Disclaimer

   EN    FR    IT 

 









Légende :    VFR   VFR Marginal   IFR   IFR Intensif   IFR Très Intensif
Visi : 
Plafond : 
>= 8 km
>= 3000ft
5 à 8 km
1000 à 3000 ft
1500m à 5 km
500 à 1000 ft
800 à 1500m
200 à 500 ft
< 800m
< 200 ft
Symboles :   Orages  Brouillard  Fortes neiges  Fortes précipitations  Vent > 20 kt






- Altitude de l'aérodrome : 461 ft
- Code IATA : KNA


SCVM - Viña del mar

DERNIER METAR :
  • 301100Z 00000KT CAVOK 12/10 Q1015

METARs EXPIRÉS :
  • 301000Z 15004KT CAVOK 09/08 Q1015

TAF TAF SCVM
Valide du 30 à 06h jusqu'au 01 à 06h UTC


300408Z 3006/0106 14004KT CAVOK TX26/3019Z TN10/3010Z
BECMG 3012/3014 33006KT
BECMG 3015/3017 33012KT
BECMG 3024/0102 32004KT
FIR SCEZ / Amérique du Sud



MET'MAP, la Météo Aéronautique d'un coup d'oeil ! - Copyright ORBIFLY Décembre 2007 - Disclaimer

ORBIFLY MET'MAP TEAM :

Programmation & Développement : Alexandra Zaïnal
Sur une idée originale de : Baudouin d'Aumeries
Assistance à la programmation : Marc-Olivier Méhu
Soutien technique & logistique : Manuel Goepfert

Contact : metmap@orbifly.com




SOURCES & CREDITS :

   NOAA       Earth
Advisory